Hourly Weather Roundup
Issued by NWS Central Illinois

Home | Current Version | Previous Version | Text Only | Print | Product List | Glossary On
Versions: 1 2 3 4 5 6 7 8 9 10 11 12 13 14 15 16 17 18 19 20 21 22 23 24 25 26 27 28 29 30 31 32 33 34 35 36 37 38 39 40 41 42 43 44 45 46 47 48 49 50
000
NZUS43 KILX 262210
HWRILX

AREA WEATHER ROUNDUP
NATIONAL WEATHER SERVICE, LINCOLN IL
500 PM CDT WED AUG 26 2015


CITY           SKY/WX    TMP DP  RH WIND       PRES   REMARKS
BLOOMINGTON    MOSUNNY   69  56  63 NE10      30.17F
CHAMPAIGN      CLOUDY    68  55  63 NW10      30.16S
DANVILLE       MOSUNNY   71  57  61 N9        30.12R
DECATUR        MOSUNNY   71  54  54 NE14G20   30.15S
EFFINGHAM      MOSUNNY   77  51  40 NW7       30.13S
FLORA          MOSUNNY   78  54  43 N6        30.11F
GALESBURG      MOSUNNY   74  56  52 N3        30.14
JACKSONVILLE   PTSUNNY   77  54  45 N7        30.13F
LACON          CLOUDY    69  55  59 E5        30.14S
LAWRENCEVILLE  PTSUNNY   78  55  44 NW5       30.10F
LITCHFIELD     SUNNY     75  52  44 N7        30.13F
$$


CITY           SKY/WX    TMP DP  RH WIND       PRES   REMARKS
LINCOLN        MOSUNNY   74  54  50 NE6       30.15S
MACOMB         MOSUNNY   75  53  46 CALM      30.16F
MATTOON        SUNNY     74  54  49 N12       30.13R
MT CARMEL AP   PTSUNNY   81  50  34 NW5       30.10S HX  80
OLNEY-NOBLE AP MOSUNNY   77  57  50 N7        30.11S
PARIS          SUNNY     75  58  55 NW10      30.13R
PEORIA         PTSUNNY   77  54  44 NE10      30.15F
PONTIAC        CLOUDY    67  56  69 N7        30.18S
RANTOUL        CLOUDY    67  56  67 NW9       30.16S
ROBINSON       MOSUNNY   78  55  44 N3        30.11S
SPRINGFIELD    MOSUNNY   76  55  48 NE12      30.14F
TAYLORVILLE    PTSUNNY   73  54  49 N8        30.13F
$$

...REGIONAL REPORTS...


CITY           SKY/WX    TMP DP  RH WIND       PRES   REMARKS
CHICAGO O`HARE CLOUDY    65  53  65 NW7       30.15F
KANKAKEE       CLOUDY    65  55  69 NW6       30.17S
MOLINE         SUNNY     76  52  43 CALM      30.12F
MOUNT STERLING SUNNY     74  54  48 N7        30.13F
MOUNT VERNON   MOSUNNY   77  55  47 CALM      30.12F
PITTSFIELD     SUNNY     78  54  44 NW5       30.15S
QUINCY         SUNNY     77  52  41 N5        30.13F
ROCKFORD       PTSUNNY   73  54  51 N5        30.16F
$$


CITY           SKY/WX    TMP DP  RH WIND       PRES   REMARKS
BURLINGTON     SUNNY     77  54  44 NE3       30.13F
CEDAR RAPIDS   SUNNY     74  55  51 VRB3      30.12F
DES MOINES     PTSUNNY   75  51  43 SE6       30.13F
KIRKSVILLE     SUNNY     78  51  38 S3        30.14F
OTTUMWA        SUNNY     75  52  44 CALM      30.11F
ST LOUIS       MOSUNNY   79  54  41 N8        30.13F
$$


CITY           SKY/WX    TMP DP  RH WIND       PRES   REMARKS
TERRE HAUTE    SUNNY     74  57  55 N3        30.11R
EVANSVILLE     SUNNY     79  54  41 VRB3      30.10S
INDIANAPOLIS   PTSUNNY   77  55  46 NW6       30.09S
LAFAYETTE      SUNNY     72  55  55 N10       30.12R
MADISON        MOSUNNY   70  53  54 VRB3      30.14F
MILWAUKEE      CLOUDY    65  51  60 W6        30.15S
$$





USA.gov is the U.S. government's official web portal to all federal, state and local government web resources and services.